| time (UTC) | temp F | wind direction | speed knots | gust knots | rain 1hr in | rain 24hr in | rain mn in | humidity % | barometer mb |
| 20260510162502 | 70 | 241 | 7.0 | 12.2 | 0.00 | 0.00 | 0.00 | 58 | 1018.8 |
| 20260510162003 | 69 | 260 | 7.0 | 18.2 | 0.00 | 0.00 | 0.00 | 59 | 1018.7 |
| 20260510161502 | 69 | 266 | 4.3 | 18.2 | 0.00 | 0.00 | 0.00 | 54 | 1018.8 |
| 20260510161002 | 69 | 344 | 6.1 | 18.2 | 0.00 | 0.00 | 0.00 | 54 | 1018.9 |
| 20260510160502 | 69 | 303 | 7.8 | 17.4 | 0.00 | 0.00 | 0.00 | 56 | 1018.9 |
| 20260510155502 | 69 | 335 | 9.6 | 15.6 | 0.00 | 0.00 | 0.00 | 57 | 1019.0 |
| 20260510154503 | 68 | 298 | 8.7 | 13.0 | 0.00 | 0.00 | 0.00 | 59 | 1019.0 |
| 20260510154003 | 68 | 315 | 0.9 | 13.9 | 0.00 | 0.00 | 0.00 | 59 | 1019.0 |
| 20260510153502 | 68 | 268 | 8.7 | 13.9 | 0.00 | 0.00 | 0.00 | 61 | 1019.0 |
| 20260510153003 | 68 | 324 | 4.3 | 14.8 | 0.00 | 0.00 | 0.00 | 62 | 1018.9 |
| 20260510152502 | 67 | 300 | 6.1 | 18.2 | 0.00 | 0.00 | 0.00 | 60 | 1018.9 |
| 20260510152003 | 68 | 279 | 9.6 | 18.2 | 0.00 | 0.00 | 0.00 | 59 | 1019.0 |
| 20260510151503 | 67 | 307 | 5.2 | 18.2 | 0.00 | 0.00 | 0.00 | 59 | 1018.9 |
| 20260510151003 | 67 | 252 | 8.7 | 15.6 | 0.00 | 0.00 | 0.00 | 59 | 1019.0 |
| 20260510150502 | 67 | 243 | 8.7 | 15.6 | 0.00 | 0.00 | 0.00 | 62 | 1018.8 |
| 20260510150003 | 67 | 240 | 7.0 | 19.1 | 0.00 | 0.00 | 0.00 | 61 | 1019.0 |
| 20260510145002 | 67 | 250 | 10.4 | 15.6 | 0.00 | 0.00 | 0.00 | 59 | 1018.8 |
| 20260510144503 | 67 | 240 | 7.0 | 13.9 | 0.00 | 0.00 | 0.00 | 61 | 1018.8 |
| 20260510144003 | 67 | 262 | 7.8 | 11.3 | 0.00 | 0.00 | 0.00 | 62 | 1018.9 |
| 20260510143502 | 67 | 348 | 7.0 | 13.0 | 0.00 | 0.00 | 0.00 | 61 | 1018.9 |
| 20260510143003 | 67 | 264 | 7.8 | 13.0 | 0.00 | 0.00 | 0.00 | 64 | 1018.8 |
| 20260510142503 | 66 | 276 | 6.1 | 12.2 | 0.00 | 0.00 | 0.00 | 62 | 1018.7 |
| 20260510142003 | 66 | 288 | 6.1 | 17.4 | 0.00 | 0.00 | 0.00 | 62 | 1018.7 |
| 20260510141503 | 66 | 236 | 7.8 | 19.1 | 0.00 | 0.00 | 0.00 | 60 | 1018.6 |
| 20260510141003 | 66 | 324 | 6.1 | 19.1 | 0.00 | 0.00 | 0.00 | 61 | 1018.7 |
| 20260510140503 | 66 | 256 | 4.3 | 12.2 | 0.00 | 0.00 | 0.00 | 64 | 1018.6 |
| 20260510140004 | 66 | 205 | 4.3 | 11.3 | 0.00 | 0.00 | 0.00 | 63 | 1018.8 |
| 20260510135503 | 65 | 276 | 4.3 | 12.2 | 0.00 | 0.00 | 0.00 | 65 | 1018.9 |
| 20260510135003 | 65 | 265 | 6.1 | 14.8 | 0.00 | 0.00 | 0.00 | 65 | 1018.9 |
| 20260510134504 | 65 | 332 | 6.1 | 14.8 | 0.00 | 0.00 | 0.00 | 65 | 1018.8 |
| 20260510134003 | 64 | 273 | 9.6 | 13.9 | 0.00 | 0.00 | 0.00 | 65 | 1018.7 |
| 20260510133503 | 64 | 317 | 5.2 | 18.2 | 0.00 | 0.00 | 0.00 | 64 | 1018.7 |
| 20260510133003 | 64 | 279 | 9.6 | 18.2 | 0.00 | 0.00 | 0.00 | 65 | 1018.6 |
| 20260510132502 | 64 | 302 | 9.6 | 17.4 | 0.00 | 0.00 | 0.00 | 67 | 1018.7 |
| 20260510132003 | 64 | 314 | 5.2 | 13.0 | 0.00 | 0.00 | 0.00 | 66 | 1018.7 |
| 20260510131508 | 64 | 326 | 5.2 | 14.8 | 0.00 | 0.00 | 0.00 | 66 | 1018.6 |
| 20260510131002 | 63 | 335 | 6.1 | 14.8 | 0.00 | 0.00 | 0.00 | 67 | 1018.6 |
| 20260510130503 | 63 | 240 | 5.2 | 8.7 | 0.00 | 0.00 | 0.00 | 67 | 1018.6 |
| 20260510130003 | 63 | 323 | 4.3 | 10.4 | 0.00 | 0.00 | 0.00 | 67 | 1018.5 |
| 20260510125502 | 63 | 276 | 4.3 | 10.4 | 0.00 | 0.00 | 0.00 | 69 | 1018.5 |
| 20260510125004 | 62 | 228 | 3.5 | 8.7 | 0.00 | 0.00 | 0.00 | 70 | 1018.5 |
| 20260510124503 | 62 | 226 | 3.5 | 8.7 | 0.00 | 0.00 | 0.00 | 71 | 1018.5 |
| 20260510123502 | 62 | 221 | 3.5 | 8.7 | 0.00 | 0.00 | 0.00 | 71 | 1018.3 |
| 20260510123003 | 61 | 263 | 2.6 | 10.4 | 0.00 | 0.00 | 0.00 | 71 | 1018.2 |
| 20260510122503 | 60 | 291 | 2.6 | 10.4 | 0.00 | 0.00 | 0.00 | 75 | 1018.2 |
| 20260510122003 | 60 | 253 | 2.6 | 8.7 | 0.00 | 0.00 | 0.00 | 76 | 1018.1 |
| 20260510121504 | 59 | 334 | 6.1 | 8.7 | 0.00 | 0.00 | 0.00 | 76 | 1018.1 |
| 20260510121002 | 58 | 340 | 2.6 | 6.1 | 0.00 | 0.00 | 0.00 | 80 | 1018.1 |
| 20260510120503 | 57 | 284 | 1.7 | 5.2 | 0.00 | 0.00 | 0.00 | 81 | 1018.2 |
| 20260510120003 | 57 | 270 | 1.7 | 7.8 | 0.00 | 0.00 | 0.00 | 82 | 1018.1 |
| 20260510115502 | 56 | 249 | 3.5 | 7.8 | 0.00 | 0.00 | 0.00 | 83 | 1018.1 |
| 20260510115002 | 56 | 258 | 3.5 | 7.8 | 0.00 | 0.00 | 0.00 | 82 | 1018.1 |
| 20260510114504 | 55 | 264 | 3.5 | 7.0 | 0.00 | 0.00 | 0.00 | 84 | 1018.0 |
| 20260510114002 | 54 | 248 | 3.5 | 7.0 | 0.00 | 0.00 | 0.00 | 85 | 1017.8 |
| 20260510113503 | 53 | 259 | 4.3 | 7.0 | 0.00 | 0.00 | 0.00 | 87 | 1017.9 |
| 20260510113004 | 52 | 228 | 1.7 | 7.0 | 0.00 | 0.00 | 0.00 | 88 | 1017.8 |
| 20260510112502 | 52 | 257 | 0.9 | 2.6 | 0.00 | 0.00 | 0.00 | 89 | 1017.8 |
| 20260510112002 | 51 | 258 | 1.7 | 2.6 | 0.00 | 0.00 | 0.00 | 89 | 1017.7 |
| 20260510111503 | 50 | 237 | 1.7 | 2.6 | 0.00 | 0.00 | 0.00 | 91 | 1017.6 |
| 20260510111003 | 50 | 256 | 1.7 | 4.3 | 0.00 | 0.00 | 0.00 | 90 | 1017.5 |
| 20260510110004 | 50 | 262 | 1.7 | 4.3 | 0.00 | 0.00 | 0.00 | 89 | 1017.3 |
| 20260510105503 | 50 | 202 | 1.7 | 6.1 | 0.00 | 0.00 | 0.00 | 89 | 1017.2 |
| 20260510105002 | 50 | 174 | 1.7 | 6.1 | 0.00 | 0.00 | 0.00 | 90 | 1017.0 |
| 20260510104503 | 49 | 101 | 1.7 | 2.6 | 0.00 | 0.00 | 0.00 | 88 | 1017.0 |
| 20260510104002 | 50 | 225 | 0.9 | 2.6 | 0.00 | 0.00 | 0.00 | 88 | 1017.0 |
| 20260510103503 | 50 | 215 | 0.9 | 2.6 | 0.00 | 0.00 | 0.00 | 88 | 1017.0 |
| 20260510102503 | 50 | 184 | 0.9 | 2.6 | 0.00 | 0.00 | 0.00 | 87 | 1016.8 |
| 20260510102002 | 50 | 323 | 0.9 | 2.6 | 0.00 | 0.00 | 0.00 | 88 | 1016.7 |
| 20260510101503 | 51 | 265 | 1.7 | 2.6 | 0.00 | 0.00 | 0.00 | 88 | 1016.7 |
| 20260510101003 | 51 | 266 | 1.7 | 2.6 | 0.00 | 0.00 | 0.00 | 87 | 1016.6 |
| 20260510100503 | 51 | 266 | 0.9 | 2.6 | 0.00 | 0.00 | 0.00 | 87 | 1016.6 |
| 20260510100003 | 51 | 266 | 0.9 | 6.1 | 0.00 | 0.00 | 0.00 | 87 | 1016.6 |
| 20260510095503 | 52 | 267 | 0.9 | 6.1 | 0.00 | 0.00 | 0.00 | 87 | 1016.6 |
| 20260510095002 | 52 | 270 | 4.3 | 6.1 | 0.00 | 0.00 | 0.00 | 86 | 1016.6 |
| 20260510094503 | 52 | 270 | 0.9 | 4.3 | 0.00 | 0.00 | 0.00 | 86 | 1016.7 |
| 20260510094003 | 52 | 270 | 2.6 | 4.3 | 0.00 | 0.00 | 0.00 | 86 | 1016.6 |
| 20260510093502 | 52 | 270 | 1.7 | 2.6 | 0.00 | 0.00 | 0.00 | 86 | 1016.5 |
| 20260510093004 | 52 | 270 | 1.7 | 4.3 | 0.00 | 0.00 | 0.00 | 86 | 1016.5 |
| 20260510092502 | 52 | 270 | 0.0 | 4.3 | 0.00 | 0.00 | 0.00 | 86 | 1016.4 |
| 20260510092002 | 51 | 270 | 1.7 | 4.3 | 0.00 | 0.00 | 0.00 | 88 | 1016.4 |
| 20260510091503 | 51 | 0 | 0.0 | 2.6 | 0.00 | 0.00 | 0.00 | 89 | 1016.3 |
| 20260510091003 | 51 | 267 | 0.0 | 6.1 | 0.00 | 0.00 | 0.00 | 90 | 1016.2 |
| 20260510090502 | 50 | 278 | 0.0 | 8.7 | 0.00 | 0.00 | 0.00 | 93 | 1016.2 |
| 20260510090003 | 50 | 270 | 4.3 | 8.7 | 0.00 | 0.00 | 0.00 | 96 | 1016.1 |
| 20260510085503 | 48 | 236 | 0.9 | 4.3 | 0.00 | 0.00 | 0.00 | 99 | 1016.0 |
| 20260510084503 | 46 | 220 | 0.9 | 4.3 | 0.00 | 0.00 | 0.00 | 100 | 1016.0 |
| 20260510084003 | 44 | 32 | 0.9 | 4.3 | 0.00 | 0.00 | 0.00 | 100 | 1015.9 |
| 20260510083503 | 43 | 271 | 0.9 | 1.7 | 0.00 | 0.00 | 0.00 | 96 | 1016.0 |
| 20260510083003 | 43 | 200 | 0.9 | 2.6 | 0.00 | 0.00 | 0.00 | 95 | 1015.9 |
| 20260510082503 | 44 | 200 | 0.0 | 2.6 | 0.00 | 0.00 | 0.00 | 100 | 1016.0 |
| 20260510082002 | 43 | 200 | 0.9 | 1.7 | 0.00 | 0.00 | 0.00 | 97 | 1016.0 |
| 20260510081503 | 43 | 200 | 0.0 | 1.7 | 0.00 | 0.00 | 0.00 | 97 | 1016.0 |
| 20260510081003 | 42 | 200 | 0.0 | 1.7 | 0.00 | 0.00 | 0.00 | 100 | 1015.9 |
| 20260510080504 | 40 | 200 | 0.9 | 1.7 | 0.00 | 0.00 | 0.00 | 96 | 1015.9 |
| 20260510080004 | 40 | 0 | 0.0 | 0.9 | 0.00 | 0.00 | 0.00 | 95 | 1015.8 |
| 20260510075003 | 40 | 200 | 0.0 | 1.7 | 0.00 | 0.00 | 0.00 | 95 | 1015.6 |
| 20260510074503 | 39 | 0 | 0.0 | 1.7 | 0.00 | 0.00 | 0.00 | 95 | 1015.5 |
| 20260510074003 | 39 | 0 | 0.0 | 1.7 | 0.00 | 0.00 | 0.00 | 94 | 1015.5 |
| 20260510072502 | 41 | 0 | 0.0 | 0.9 | 0.00 | 0.00 | 0.00 | 95 | 1015.6 |
| 20260510071002 | 40 | 0 | 0.0 | 1.7 | 0.00 | 0.00 | 0.00 | 94 | 1015.5 |
| 20260510070503 | 40 | 201 | 0.0 | 2.6 | 0.00 | 0.00 | 0.00 | 93 | 1015.5 |
| 20260510070003 | 40 | 201 | 1.7 | 4.3 | 0.00 | 0.00 | 0.00 | 93 | 1015.5 |
| 20260510065502 | 40 | 0 | 0.0 | 4.3 | 0.00 | 0.00 | 0.00 | 92 | 1015.4 |
| 20260510065003 | 41 | 200 | 1.7 | 5.2 | 0.00 | 0.00 | 0.00 | 92 | 1015.4 |
| 20260510064504 | 42 | 198 | 0.9 | 5.2 | 0.00 | 0.00 | 0.00 | 95 | 1015.4 |
| 20260510064003 | 41 | 213 | 3.5 | 5.2 | 0.00 | 0.00 | 0.00 | 93 | 1015.4 |
| 20260510063503 | 42 | 213 | 0.0 | 1.7 | 0.00 | 0.00 | 0.00 | 93 | 1015.4 |
| 20260510063003 | 42 | 0 | 0.0 | 1.7 | 0.00 | 0.00 | 0.00 | 93 | 1015.4 |
| 20260510062505 | 42 | 214 | 0.9 | 1.7 | 0.00 | 0.00 | 0.00 | 94 | 1015.4 |
| 20260510062003 | 42 | 0 | 0.0 | 0.9 | 0.00 | 0.00 | 0.00 | 92 | 1015.5 |
| 20260510061503 | 42 | 0 | 0.0 | 0.0 | 0.00 | 0.00 | 0.00 | 92 | 1015.6 |
| 20260510061003 | 42 | 0 | 0.0 | 0.0 | 0.00 | 0.00 | 0.00 | 94 | 1015.7 |
| 20260510060502 | 42 | 0 | 0.0 | 0.0 | 0.00 | 0.00 | 0.00 | 94 | 1015.7 |
| 20260510060003 | 42 | 0 | 0.0 | 1.7 | 0.00 | 0.00 | 0.00 | 93 | 1015.6 |
| 20260510055503 | 41 | 0 | 0.0 | 1.7 | 0.00 | 0.00 | 0.00 | 92 | 1015.6 |
| 20260510055003 | 42 | 214 | 1.7 | 1.7 | 0.00 | 0.00 | 0.00 | 90 | 1015.6 |
| 20260510054504 | 42 | 214 | 0.9 | 1.7 | 0.00 | 0.00 | 0.00 | 91 | 1015.6 |
| 20260510054004 | 43 | 0 | 0.0 | 2.6 | 0.00 | 0.00 | 0.00 | 91 | 1015.6 |
| 20260510053504 | 43 | 214 | 1.7 | 2.6 | 0.00 | 0.00 | 0.00 | 92 | 1015.7 |
| 20260510053003 | 43 | 214 | 0.9 | 2.6 | 0.00 | 0.00 | 0.00 | 91 | 1015.6 |
| 20260510052503 | 44 | 214 | 0.9 | 1.7 | 0.00 | 0.00 | 0.00 | 91 | 1015.6 |
| 20260510052003 | 44 | 213 | 0.0 | 1.7 | 0.00 | 0.00 | 0.00 | 89 | 1015.6 |
| 20260510051503 | 44 | 0 | 0.0 | 0.0 | 0.00 | 0.00 | 0.00 | 91 | 1015.6 |
| 20260510051003 | 45 | 0 | 0.0 | 0.9 | 0.00 | 0.00 | 0.00 | 91 | 1015.7 |
| 20260510050503 | 45 | 0 | 0.0 | 2.6 | 0.00 | 0.00 | 0.00 | 91 | 1015.8 |
| 20260510050004 | 45 | 214 | 1.7 | 2.6 | 0.00 | 0.00 | 0.00 | 91 | 1015.7 |
| 20260510045503 | 45 | 193 | 0.0 | 0.9 | 0.00 | 0.00 | 0.00 | 90 | 1015.7 |
| 20260510045002 | 45 | 0 | 0.0 | 0.9 | 0.00 | 0.00 | 0.00 | 90 | 1015.6 |
| 20260510044003 | 46 | 0 | 0.0 | 0.9 | 0.00 | 0.00 | 0.00 | 88 | 1015.7 |
| 20260510043503 | 46 | 0 | 0.0 | 0.9 | 0.00 | 0.00 | 0.00 | 87 | 1015.6 |
| 20260510043004 | 47 | 0 | 0.0 | 0.9 | 0.00 | 0.00 | 0.00 | 88 | 1015.6 |
| 20260510042003 | 48 | 0 | 0.0 | 1.7 | 0.00 | 0.00 | 0.00 | 88 | 1015.6 |
| 20260510041504 | 48 | 0 | 0.0 | 2.6 | 0.00 | 0.00 | 0.00 | 87 | 1015.7 |
| 20260510041002 | 48 | 202 | 2.6 | 2.6 | 0.00 | 0.00 | 0.00 | 86 | 1015.6 |
| 20260510040503 | 49 | 203 | 1.7 | 2.6 | 0.00 | 0.00 | 0.00 | 84 | 1015.6 |
| 20260510040008 | 49 | 203 | 0.9 | 2.6 | 0.00 | 0.00 | 0.00 | 84 | 1015.6 |
| 20260510035503 | 50 | 203 | 0.9 | 2.6 | 0.00 | 0.00 | 0.00 | 84 | 1015.6 |
| 20260510035003 | 50 | 203 | 1.7 | 2.6 | 0.00 | 0.00 | 0.00 | 83 | 1015.6 |
| 20260510034503 | 51 | 203 | 1.7 | 2.6 | 0.00 | 0.00 | 0.00 | 80 | 1015.6 |
| 20260510034003 | 52 | 0 | 0.0 | 4.3 | 0.00 | 0.00 | 0.00 | 80 | 1015.6 |
| 20260510033503 | 52 | 204 | 2.6 | 4.3 | 0.00 | 0.00 | 0.00 | 82 | 1015.5 |
| 20260510032503 | 51 | 209 | 1.7 | 1.7 | 0.00 | 0.00 | 0.00 | 83 | 1015.4 |
| 20260510032003 | 51 | 209 | 1.7 | 1.7 | 0.00 | 0.00 | 0.00 | 84 | 1015.3 |
| 20260510031504 | 50 | 208 | 0.0 | 1.7 | 0.00 | 0.00 | 0.00 | 85 | 1015.3 |
| 20260510030502 | 49 | 0 | 0.0 | 1.7 | 0.00 | 0.00 | 0.00 | 85 | 1015.2 |
| 20260510030003 | 49 | 208 | 0.0 | 2.6 | 0.00 | 0.00 | 0.00 | 86 | 1015.1 |
| 20260510025503 | 49 | 209 | 1.7 | 4.3 | 0.00 | 0.00 | 0.00 | 86 | 1015.2 |
| 20260510024505 | 49 | 299 | 0.0 | 1.7 | 0.00 | 0.00 | 0.00 | 86 | 1015.2 |
| 20260510024003 | 49 | 299 | 0.9 | 1.7 | 0.00 | 0.00 | 0.00 | 88 | 1015.1 |
| 20260510023503 | 48 | 299 | 0.0 | 1.7 | 0.00 | 0.00 | 0.00 | 88 | 1015.1 |
| 20260510022503 | 48 | 0 | 0.0 | 0.9 | 0.00 | 0.00 | 0.00 | 86 | 1015.0 |
| 20260510022003 | 49 | 0 | 0.0 | 0.0 | 0.00 | 0.00 | 0.00 | 86 | 1015.1 |
| 20260510021503 | 49 | 0 | 0.0 | 0.0 | 0.00 | 0.00 | 0.00 | 85 | 1015.0 |
| 20260510021003 | 50 | 0 | 0.0 | 1.7 | 0.00 | 0.00 | 0.00 | 84 | 1014.9 |
| 20260510020503 | 50 | 299 | 0.0 | 1.7 | 0.00 | 0.00 | 0.00 | 84 | 1015.0 |
| 20260510020004 | 50 | 0 | 0.0 | 0.0 | 0.00 | 0.00 | 0.00 | 84 | 1014.9 |
| 20260510015503 | 50 | 0 | 0.0 | 0.0 | 0.00 | 0.00 | 0.00 | 85 | 1014.8 |
| 20260510015002 | 50 | 0 | 0.0 | 1.7 | 0.00 | 0.00 | 0.00 | 84 | 1014.7 |
| 20260510014503 | 51 | 299 | 0.0 | 1.7 | 0.00 | 0.00 | 0.00 | 82 | 1014.8 |
| 20260510013004 | 53 | 0 | 0.0 | 0.0 | 0.00 | 0.00 | 0.00 | 79 | 1014.4 |
| 20260510012503 | 53 | 0 | 0.0 | 0.0 | 0.00 | 0.00 | 0.00 | 79 | 1014.3 |
| 20260510012002 | 54 | 0 | 0.0 | 1.7 | 0.00 | 0.00 | 0.00 | 78 | 1014.2 |
| 20260510011503 | 54 | 0 | 0.0 | 1.7 | 0.00 | 0.00 | 0.00 | 77 | 1014.1 |
| 20260510010503 | 56 | 300 | 1.7 | 1.7 | 0.00 | 0.00 | 0.00 | 73 | 1014.1 |
| 20260510010003 | 57 | 0 | 0.0 | 0.0 | 0.00 | 0.00 | 0.00 | 71 | 1013.9 |
| 20260510005003 | 59 | 0 | 0.0 | 1.7 | 0.00 | 0.00 | 0.00 | 69 | 1014.0 |
| 20260510004504 | 59 | 0 | 0.0 | 1.7 | 0.00 | 0.00 | 0.00 | 67 | 1013.9 |
| 20260510004003 | 60 | 300 | 0.9 | 1.7 | 0.00 | 0.00 | 0.00 | 66 | 1013.8 |
| 20260510003502 | 60 | 299 | 0.0 | 0.9 | 0.00 | 0.00 | 0.00 | 65 | 1013.7 |
| 20260510003004 | 61 | 0 | 0.0 | 1.7 | 0.00 | 0.00 | 0.00 | 63 | 1013.8 |
| 20260510002503 | 61 | 317 | 0.0 | 1.7 | 0.00 | 0.00 | 0.00 | 61 | 1013.8 |
| 20260510002003 | 62 | 0 | 0.0 | 2.6 | 0.00 | 0.00 | 0.00 | 61 | 1013.7 |
| 20260510001003 | 63 | 314 | 0.0 | 4.3 | 0.00 | 0.00 | 0.00 | 60 | 1013.7 |
| 20260510000503 | 63 | 314 | 1.7 | 7.8 | 0.00 | 0.00 | 0.00 | 58 | 1013.6 |
| 20260510000004 | 63 | 314 | 2.6 | 7.8 | 0.00 | 0.00 | 0.00 | 57 | 1013.6 |
| 20260509235503 | 64 | 335 | 2.6 | 8.7 | 0.00 | 0.00 | 0.00 | 56 | 1013.5 |
| 20260509235003 | 65 | 322 | 5.2 | 8.7 | 0.00 | 0.00 | 0.00 | 55 | 1013.4 |
| 20260509234503 | 65 | 314 | 3.5 | 11.3 | 0.00 | 0.00 | 0.00 | 55 | 1013.3 |
| 20260509233503 | 66 | 279 | 1.7 | 12.2 | 0.00 | 0.00 | 0.00 | 55 | 1013.2 |
| 20260509233003 | 66 | 329 | 6.1 | 12.2 | 0.00 | 0.00 | 0.00 | 53 | 1013.1 |
| 20260509232503 | 66 | 311 | 5.2 | 12.2 | 0.00 | 0.00 | 0.00 | 53 | 1013.1 |
| 20260509232003 | 67 | 310 | 4.3 | 11.3 | 0.00 | 0.00 | 0.00 | 52 | 1013.1 |
| 20260509231503 | 67 | 310 | 2.6 | 11.3 | 0.00 | 0.00 | 0.00 | 52 | 1013.1 |
| 20260509231002 | 67 | 315 | 4.3 | 8.7 | 0.00 | 0.00 | 0.00 | 53 | 1013.0 |
| 20260509230503 | 67 | 304 | 3.5 | 10.4 | 0.00 | 0.00 | 0.00 | 54 | 1012.9 |
| 20260509230004 | 68 | 272 | 7.8 | 12.2 | 0.00 | 0.00 | 0.00 | 51 | 1012.8 |
| 20260509225003 | 68 | 266 | 5.2 | 14.8 | 0.00 | 0.00 | 0.00 | 52 | 1012.8 |
| 20260509224504 | 68 | 261 | 8.7 | 14.8 | 0.00 | 0.00 | 0.00 | 51 | 1012.8 |
| 20260509224003 | 68 | 326 | 7.8 | 13.0 | 0.00 | 0.00 | 0.00 | 52 | 1012.9 |
| 20260509222503 | 66 | 276 | 6.1 | 12.2 | 0.00 | 0.00 | 0.00 | 52 | 1012.9 |
| 20260509222002 | 67 | 296 | 7.8 | 12.2 | 0.00 | 0.00 | 0.00 | 51 | 1012.9 |
| 20260509221503 | 68 | 297 | 4.3 | 10.4 | 0.00 | 0.00 | 0.00 | 52 | 1012.8 |
| 20260509221002 | 68 | 276 | 3.5 | 11.3 | 0.00 | 0.00 | 0.00 | 51 | 1012.9 |
| 20260509220503 | 68 | 298 | 3.5 | 13.0 | 0.00 | 0.00 | 0.00 | 53 | 1012.8 |
| 20260509220004 | 68 | 332 | 7.0 | 13.0 | 0.00 | 0.00 | 0.00 | 52 | 1012.7 |
| 20260509215503 | 69 | 247 | 6.1 | 10.4 | 0.00 | 0.00 | 0.00 | 52 | 1012.7 |
| 20260509215002 | 68 | 278 | 5.2 | 10.4 | 0.00 | 0.00 | 0.00 | 53 | 1012.6 |
| 20260509214504 | 68 | 244 | 7.0 | 10.4 | 0.00 | 0.00 | 0.00 | 54 | 1012.6 |
| 20260509214003 | 68 | 286 | 7.0 | 10.4 | 0.00 | 0.00 | 0.00 | 53 | 1012.6 |
| 20260509213503 | 68 | 250 | 4.3 | 10.4 | 0.00 | 0.00 | 0.00 | 53 | 1012.6 |
| 20260509213004 | 67 | 255 | 5.2 | 11.3 | 0.00 | 0.00 | 0.00 | 56 | 1012.6 |
| 20260509212502 | 67 | 240 | 7.0 | 13.9 | 0.00 | 0.00 | 0.00 | 53 | 1012.5 |
| 20260509212003 | 67 | 225 | 7.0 | 13.9 | 0.00 | 0.00 | 0.00 | 53 | 1012.5 |
| 20260509211503 | 67 | 293 | 2.6 | 13.0 | 0.00 | 0.00 | 0.00 | 55 | 1012.4 |
| 20260509211003 | 67 | 301 | 5.2 | 13.0 | 0.00 | 0.00 | 0.00 | 52 | 1012.4 |
| 20260509210503 | 67 | 274 | 4.3 | 10.4 | 0.00 | 0.00 | 0.00 | 51 | 1012.4 |
| 20260509205504 | 68 | 220 | 5.2 | 13.9 | 0.00 | 0.00 | 0.00 | 52 | 1012.4 |
| 20260509205003 | 68 | 284 | 8.7 | 15.6 | 0.00 | 0.00 | 0.00 | 50 | 1012.4 |
| 20260509204504 | 67 | 263 | 9.6 | 15.6 | 0.00 | 0.00 | 0.00 | 49 | 1012.3 |
| 20260509204002 | 67 | 265 | 9.6 | 17.4 | 0.00 | 0.00 | 0.00 | 49 | 1012.3 |
| 20260509203503 | 67 | 230 | 10.4 | 19.1 | 0.00 | 0.00 | 0.00 | 50 | 1012.3 |
| 20260509203004 | 67 | 249 | 12.2 | 19.1 | 0.00 | 0.00 | 0.00 | 49 | 1012.3 |
| 20260509202503 | 68 | 168 | 11.3 | 19.1 | 0.00 | 0.00 | 0.00 | 48 | 1012.3 |
| 20260509202003 | 69 | 253 | 7.8 | 15.6 | 0.00 | 0.00 | 0.00 | 47 | 1012.4 |
| 20260509201003 | 69 | 227 | 5.2 | 17.4 | 0.00 | 0.00 | 0.00 | 50 | 1012.1 |
| 20260509200503 | 69 | 207 | 7.0 | 22.6 | 0.00 | 0.00 | 0.00 | 50 | 1012.2 |
| 20260509200004 | 69 | 174 | 12.2 | 22.6 | 0.00 | 0.00 | 0.00 | 50 | 1012.2 |
| 20260509195502 | 69 | 224 | 8.7 | 22.6 | 0.00 | 0.00 | 0.00 | 53 | 1012.2 |
| 20260509195003 | 68 | 258 | 6.1 | 15.6 | 0.00 | 0.00 | 0.00 | 53 | 1012.1 |
| 20260509194503 | 67 | 201 | 5.2 | 13.9 | 0.00 | 0.00 | 0.00 | 51 | 1012.1 |
| 20260509193503 | 68 | 230 | 7.0 | 14.8 | 0.00 | 0.00 | 0.00 | 51 | 1012.1 |
| 20260509193004 | 68 | 269 | 6.1 | 13.0 | 0.00 | 0.00 | 0.00 | 54 | 1012.1 |
| 20260509192003 | 68 | 170 | 5.2 | 15.6 | 0.00 | 0.00 | 0.00 | 53 | 1012.2 |
| 20260509191504 | 68 | 248 | 10.4 | 15.6 | 0.00 | 0.00 | 0.00 | 53 | 1012.3 |
| 20260509191003 | 68 | 262 | 5.2 | 13.9 | 0.00 | 0.00 | 0.00 | 56 | 1012.2 |
| 20260509190503 | 68 | 313 | 2.6 | 13.9 | 0.00 | 0.00 | 0.00 | 57 | 1012.3 |
| 20260509190004 | 69 | 244 | 6.1 | 11.3 | 0.00 | 0.00 | 0.00 | 54 | 1012.4 |
| 20260509185503 | 68 | 277 | 5.2 | 11.3 | 0.00 | 0.00 | 0.00 | 58 | 1012.4 |
| 20260509184504 | 68 | 288 | 7.8 | 12.2 | 0.00 | 0.00 | 0.00 | 57 | 1012.5 |
| 20260509184003 | 68 | 262 | 6.1 | 12.2 | 0.00 | 0.00 | 0.00 | 56 | 1012.4 |
| 20260509183504 | 67 | 283 | 7.0 | 14.8 | 0.00 | 0.00 | 0.00 | 59 | 1012.4 |
| 20260509183004 | 67 | 244 | 6.1 | 14.8 | 0.00 | 0.00 | 0.00 | 57 | 1012.6 |
| 20260509182503 | 67 | 288 | 6.1 | 13.0 | 0.00 | 0.00 | 0.00 | 58 | 1012.4 |
| 20260509182003 | 66 | 323 | 3.5 | 12.2 | 0.00 | 0.00 | 0.00 | 59 | 1012.4 |
| 20260509181504 | 66 | 313 | 6.1 | 12.2 | 0.00 | 0.00 | 0.00 | 55 | 1012.5 |
| 20260509180503 | 67 | 251 | 11.3 | 14.8 | 0.00 | 0.00 | 0.00 | 55 | 1012.6 |
| 20260509180004 | 67 | 226 | 6.1 | 12.2 | 0.00 | 0.00 | 0.00 | 55 | 1012.6 |
| 20260509175503 | 67 | 202 | 5.2 | 11.3 | 0.00 | 0.00 | 0.00 | 56 | 1012.7 |
| 20260509175003 | 66 | 339 | 4.3 | 12.2 | 0.00 | 0.00 | 0.00 | 59 | 1012.8 |
| 20260509174503 | 66 | 303 | 2.6 | 12.2 | 0.00 | 0.00 | 0.00 | 58 | 1012.9 |
| 20260509174004 | 65 | 250 | 8.7 | 18.2 | 0.00 | 0.00 | 0.00 | 62 | 1013.1 |
| 20260509173503 | 64 | 298 | 5.2 | 18.2 | 0.00 | 0.00 | 0.00 | 57 | 1012.9 |
| 20260509173003 | 65 | 297 | 6.1 | 10.4 | 0.00 | 0.00 | 0.00 | 62 | 1012.9 |
| 20260509172504 | 65 | 237 | 7.8 | 11.3 | 0.00 | 0.00 | 0.00 | 59 | 1012.9 |
| 20260509172003 | 65 | 287 | 3.5 | 11.3 | 0.00 | 0.00 | 0.00 | 59 | 1012.9 |
| 20260509171003 | 64 | 230 | 3.5 | 12.2 | 0.00 | 0.00 | 0.00 | 59 | 1013.0 |
| 20260509170504 | 64 | 328 | 7.8 | 12.2 | 0.00 | 0.00 | 0.00 | 60 | 1013.2 |
| 20260509165503 | 64 | 297 | 6.1 | 13.9 | 0.00 | 0.00 | 0.00 | 57 | 1013.4 |
| 20260509165003 | 64 | 283 | 5.2 | 13.0 | 0.00 | 0.00 | 0.00 | 60 | 1013.3 |
| 20260509164503 | 64 | 292 | 3.5 | 10.4 | 0.00 | 0.00 | 0.00 | 61 | 1013.2 |
| 20260509163503 | 65 | 212 | 4.3 | 12.2 | 0.00 | 0.00 | 0.00 | 64 | 1013.4 |
| 20260509163004 | 65 | 269 | 7.0 | 11.3 | 0.00 | 0.00 | 0.00 | 64 | 1013.4 |